Flag for Qatar Weather past 2 weeks in Al-Jamiliyah, Qatar

Now
96 °F

Sunny.


Feels Like: 114 °F
Forecast: 86 / 105 °F
Wind: 10 mph from Northeast

Location: Al Udeid

Current Time: Aug 30, 2014 at 7:56:28 PM

Latest Report: Aug 30, 2014 at 6:58 PM


Visibility: N/A

Pressure: 29.59 "Hg

Humidity: 58%

Dew point: 79 °F

Location of Al-JamiliyahLocation

Historic Weather in Al-Jamiliyah — Graph

°F

Al-Jamiliyah temperature yesterday

Maximum temperature yesterday: 109 °F (at 1:58 PM)
Minimum temperature yesterday: 88 °F (at 5:58 AM)
Average temperature yesterday: 96 °F

Past Weeks' High & Low Weather Summary

 TemperatureHumidityPressure
High113 °F (Aug 16, 1:58 PM)87% (Aug 16, 3:58 AM)29.74 "Hg (Aug 16, 3:58 AM)
Low86 °F (Aug 23, 4:58 AM)15% (Aug 16, 12:58 PM)29.40 "Hg (Aug 16, 3:58 PM)
Average98 °F54%29.58 "Hg
* Reported Aug 15 6:58 PM — Aug 30 6:58 PM, Al-Jamiliyah, Weather by CustomWeather, © 2014

Note: Actual official high and low records may vary slightly from our data, if they occured in-between our weather recording intervals... More about our weather records

Advertising

Al-Jamiliyah weather history for previous 24 hours

 ConditionsComfort  
Time TempWeatherWind HumidityBarometerVisibility
6:58 PM
Aug 30
96 °FSunny.10 mph58%29.59 "HgN/A
5:58 PM98 °FSunny.12 mph53%29.57 "HgN/A
4:58 PM102 °FSunny.14 mph38%29.55 "Hg4 mi
3:58 PM106 °FSunny.15 mph30%29.56 "Hg5 mi
2:58 PM110 °FSunny.1 mph15%29.55 "HgN/A
1:58 PM109 °FSunny.5 mph16%29.57 "HgN/A
12:58 PM108 °FSunny.6 mph18%29.59 "HgN/A
11:58 AM108 °FSunny.6 mph20%29.61 "HgN/A
10:58 AM106 °FSunny.5 mph22%29.65 "HgN/A
9:58 AM103 °FSunny.3 mph25%29.66 "HgN/A
8:58 AM99 °FSunny.2 mph29%29.67 "HgN/A
7:58 AM97 °FSunny.1 mph32%29.67 "HgN/A
6:58 AM92 °FSunny.8 mph49%29.64 "HgN/A
5:58 AM88 °FClear.10 mph55%29.61 "HgN/A
4:58 AM88 °FClear.8 mph62%29.60 "HgN/A
3:58 AM89 °FClear.10 mph66%29.59 "HgN/A
2:58 AM90 °FClear.8 mph70%29.59 "HgN/A
1:58 AM91 °FClear.13 mph72%29.57 "HgN/A
12:58 AM90 °FClear.10 mph71%29.58 "HgN/A
11:58 PM
Aug 29
90 °FClear.12 mph70%29.59 "HgN/A
9:58 PM93 °FClear.7 mph64%29.58 "HgN/A
8:58 PM94 °FClear.8 mph61%29.59 "HgN/A
7:58 PM94 °FClear.9 mph64%29.58 "HgN/A
Weather by CustomWeather, © 2014

See weather overviewHow to use our weather pages